Regional Weather Roundup
Issued by NWS

Home | Current Version | Previous Version | Text Only | Print | Product List | Glossary On
Versions: 1 2 3 4 5 6 7 8 9 10 11 12 13 14 15 16 17 18 19 20 21 22 23 24 25 26 27 28 29 30 31 32 33 34 35 36 37 38 39 40 41 42 43 44 45 46 47 48 49 50
000
ASUS43 KOAX 121610
RWRNE

WEATHER ROUNDUP FOR NEBRASKA
NATIONAL WEATHER SERVICE OMAHA NE
1100 AM CDT SAT JUL 12 2014

NOTES: SATELLITE DATA IS BEING USED TO AUGMENT CLOUD COVER ABOVE
       12000 FEET.
       "FAIR" INDICATES FEW OR NO CLOUDS BELOW 12,000 FEET WITH NO
       SIGNIFICANT WEATHER AND/OR OBSTRUCTIONS TO VISIBILITY.

  * THESE STATIONS DO NOT REPORT WEATHER SUCH AS RAIN...SNOW OR FOG.

NEZ001>004-019>022-054>056-121700-
NEBRASKA PANHANDLE

CITY           SKY/WX    TMP DP  RH WIND       PRES   REMARKS
SCOTTSBLUFF    PTSUNNY   71  61  70 E6        30.22R
ALLIANCE       CLOUDY    68  60  75 NE8       30.21R
CHADRON        MOSUNNY   72  60  66 CALM      30.18R
KIMBALL        CLOUDY    63  61  94 N7        30.25S
SIDNEY         PTSUNNY   71  60  68 N14       30.22S
$$

NEZ057>060-069>072-079>082-121700-
SOUTHWEST NEBRASKA

CITY           SKY/WX    TMP DP  RH WIND       PRES   REMARKS
NORTH PLATTE   CLOUDY    71  66  84 N9        30.10R
IMPERIAL       CLOUDY    70  64  81 N15       30.12R
LEXINGTON      PTSUNNY   78  70  76 N12       30.04S
MCCOOK         MOSUNNY   80  69  69 N16       30.05R
OGALLALA       CLOUDY    71  65  81 NE9       30.14S
$$

NEZ005>010-023>029-035>040-094-121700-
NORTH CENTRAL NEBRASKA

CITY           SKY/WX    TMP DP  RH WIND       PRES   REMARKS
VALENTINE      CLOUDY    70  65  84 N12       30.12F
AINSWORTH      CLOUDY    71  66  83 NE7       30.11S
BROKEN BOW     CLOUDY    72  68  87 N12       30.07S
O`NEILL        CLOUDY    68  64  88 N9        30.09F
ORD            CLOUDY    72  66  81 N8        30.04S
THEDFORD       PTSUNNY   74  67  80 NE10      30.12F
$$

NEZ041-046>049-061>064-073>077-083>087-121700-
SOUTH CENTRAL NEBRASKA

CITY           SKY/WX    TMP DP  RH WIND       PRES   REMARKS
GRAND ISLAND   CLOUDY    80  68  66 N3        30.01R
AURORA         CLOUDY    79  70  74 SW3       30.00F
HASTINGS       PTSUNNY   82  64  54 SW7       30.00S
HEBRON         MOSUNNY   86  67  52 SW10      30.00S
HOLDREGE       PTSUNNY   79  65  62 W6        30.01S
KEARNEY *      PTSUNNY   79  64  61 W8        30.02R
YORK           PTSUNNY   81  68  65 SW9       30.00S
$$

NEZ011>018-030>034-042>045-121700-
NORTHEAST NEBRASKA

CITY           SKY/WX    TMP DP  RH WIND       PRES   REMARKS
NORFOLK        CLOUDY    72  68  87 N13       30.03R
ALBION         CLOUDY    71  68  92 N6        30.04S
BLAIR          CLOUDY    77  69  78 SE7       29.98S
FREMONT        CLOUDY    78  71  78 CALM      29.99S
TEKAMAH        CLOUDY    77  69  76 CALM      29.98S
WAYNE          LGT RAIN  72  69  92 N9        30.04S
$$

NEZ050>053-065>068-078-088>093-121700-
SOUTHEAST NEBRASKA

CITY           SKY/WX    TMP DP  RH WIND       PRES   REMARKS
LINCOLN        CLOUDY    85  67  54 SW8       29.99R
OMAHA EPPLEY   CLOUDY    79  70  74 CALM      29.98R
BEATRICE       PTSUNNY   80  68  66 S10       29.99F
FALLS CITY     PTSUNNY   84  70  62 SE7       30.00F
NEBRASKA CITY  MOSUNNY   82  69  63 S10       29.99F
PLATTSMOUTH    PTSUNNY   81  69  67 S9        29.98F
$$

NEZ044-045-051>053-067-121700-
OMAHA AREA

CITY           SKY/WX    TMP DP  RH WIND       PRES   REMARKS
OMAHA EPPLEY   CLOUDY    79  70  74 CALM      29.98R
BLAIR          CLOUDY    77  69  78 SE7       29.98S
FREMONT        CLOUDY    78  71  78 CALM      29.99S
MILLARD        CLOUDY    80  72  78 CALM      29.98R
PLATTSMOUTH    PTSUNNY   81  69  67 S9        29.98F
WAHOO          FAIR      80  72  77 CALM      29.98S
$$



USA.gov is the U.S. government's official web portal to all federal, state and local government web resources and services.